カタログに戻る

STARLINK-34103

運用中通信VLEO
NORAD 63962·PAYLOAD·🇺🇸 United States

打ち上げ May 13, 2025 から Cape Canaveral Space Force Station

Loading…

次のパス (今後24時間)

TLE

最新Source: CelesTrak SupGP

元期: Sep 14, 2026, 21:25 UTC

1 63962C 25099L   26257.89284722 -.00001309  00000+0 -47407-4 0  2572
2 63962  42.9998 187.6649 0001332 263.6575  67.7576 15.27589135    18

AllMySatでSTARLINK-34103をリアルタイム追跡

Download on the App Store